Le nostre stazioni meteo in Italia

Pubblicità
Il mio iltempo24.it
Winterbourne No 2, Gran Bretagna (99062): Temperatura & dewpoint: 08.11.2019 08:00:00 - 14.11.2019 08:00:00 (GMT)Winterbourne No 2, Gran Bretagna (99062): Temperatura -20cm & Temperatura -100cm: 08.11.2019 08:00:00 - 14.11.2019 08:00:00 (GMT)Winterbourne No 2, Gran Bretagna (99062): precipitazioni: 08.11.2019 08:00:00 - 14.11.2019 08:00:00 (GMT)
Data & Tempo tt [°C] td [°C] tt -20cm [°C] tt -100cm [°C] rr [mm]
14.11.2019 08:00:00 5,4 4,7 - - 0,4
14.11.2019 07:00:00 5,5 4,8 - - 0,2
14.11.2019 06:00:00 5,0 4,6 - - 1,0
14.11.2019 05:00:00 4,6 4,2 - - 1,0
14.11.2019 04:00:00 4,5 4,1 - - 1,4
14.11.2019 03:00:00 4,2 3,7 - - 1,0
14.11.2019 02:00:00 4,6 4,0 - - 0,8
14.11.2019 01:00:00 4,3 3,9 - - 1,4
14.11.2019 00:00:00 4,4 3,8 - - 1,2
13.11.2019 23:00:00 4,7 3,6 - - 0,4
13.11.2019 22:00:00 4,9 3,0 - - 0,0
13.11.2019 21:00:00 4,9 2,3 - - 0,0
13.11.2019 20:00:00 4,4 2,3 - - 0,0
13.11.2019 19:00:00 4,0 2,1 - - 0,0
13.11.2019 18:00:00 3,4 1,7 - - 0,0
13.11.2019 17:00:00 4,4 1,2 - - 0,0
13.11.2019 16:00:00 5,6 1,6 - - 0,0
13.11.2019 15:00:00 6,8 2,2 - - 0,0
13.11.2019 14:00:00 7,7 3,4 - - 0,0
13.11.2019 13:00:00 7,3 3,1 - - 0,0
13.11.2019 12:00:00 6,8 2,8 - - 0,0
13.11.2019 11:00:00 6,3 2,9 - - 0,0
13.11.2019 10:00:00 5,0 3,4 - - 0,0
13.11.2019 09:00:00 3,4 3,0 7,7 10,2 0,0
13.11.2019 08:00:00 2,4 2,1 - - 0,0
13.11.2019 07:00:00 2,5 1,8 - - 0,0
13.11.2019 06:00:00 3,1 2,1 - - 0,0
13.11.2019 05:00:00 3,2 2,3 - - 0,0
13.11.2019 04:00:00 4,0 2,5 - - 0,0
13.11.2019 03:00:00 4,2 2,7 - - 0,0
13.11.2019 02:00:00 4,6 3,2 - - 0,0
13.11.2019 01:00:00 5,2 3,8 - - 0,0
13.11.2019 00:00:00 5,6 4,3 - - 0,0
12.11.2019 23:00:00 5,3 4,0 - - 0,0
12.11.2019 22:00:00 6,0 4,5 - - 0,0
12.11.2019 21:00:00 6,8 4,8 - - 0,0
12.11.2019 20:00:00 7,2 5,0 - - 0,0
12.11.2019 19:00:00 7,4 5,1 - - 0,0
12.11.2019 18:00:00 7,4 5,3 - - 0,0
12.11.2019 17:00:00 7,3 5,5 - - 0,2
12.11.2019 16:00:00 7,3 5,7 - - 0,0
12.11.2019 15:00:00 6,9 5,6 - - 0,2
12.11.2019 14:00:00 6,5 5,4 - - 0,4
12.11.2019 13:00:00 6,1 4,6 - - 0,0
12.11.2019 12:00:00 5,6 2,8 - - 0,0
12.11.2019 11:00:00 5,7 2,8 - - 0,2
12.11.2019 10:00:00 5,3 2,9 - - 0,2
12.11.2019 09:00:00 4,3 1,8 7,9 10,5 0,0
12.11.2019 08:00:00 3,6 1,3 - - 0,0
12.11.2019 07:00:00 2,8 1,2 - - 0,0
12.11.2019 06:00:00 2,6 1,0 - - 0,0
12.11.2019 05:00:00 2,7 1,1 - - 0,0
12.11.2019 04:00:00 3,2 1,2 - - 0,0
12.11.2019 03:00:00 3,4 1,1 - - 0,0
12.11.2019 02:00:00 3,5 1,5 - - 0,0
12.11.2019 01:00:00 3,4 1,4 - - 0,0
12.11.2019 00:00:00 3,0 1,5 - - 0,0
11.11.2019 23:00:00 3,5 1,5 - - 0,0
11.11.2019 22:00:00 3,5 1,7 - - 0,0
11.11.2019 21:00:00 4,1 2,1 - - 0,2
11.11.2019 20:00:00 4,6 1,4 - - 0,0
11.11.2019 19:00:00 5,0 2,0 - - 0,0
11.11.2019 18:00:00 5,5 2,2 - - 0,0
11.11.2019 17:00:00 6,3 2,6 - - 0,0
11.11.2019 16:00:00 6,7 2,7 - - 0,0
11.11.2019 15:00:00 7,0 3,1 - - 0,0
11.11.2019 14:00:00 7,3 3,1 - - 0,0
11.11.2019 13:00:00 8,1 2,9 - - 0,0
11.11.2019 12:00:00 7,8 3,0 - - 0,0
11.11.2019 11:00:00 7,7 3,4 - - 0,0
11.11.2019 10:00:00 6,2 4,0 - - 0,0
11.11.2019 09:00:00 5,3 3,5 8,4 10,7 0,0
11.11.2019 08:00:00 4,7 3,4 - - 0,0
11.11.2019 07:00:00 4,3 3,3 - - 0,0
11.11.2019 06:00:00 4,6 3,4 - - 0,0
11.11.2019 05:00:00 5,5 4,2 - - 0,8
11.11.2019 04:00:00 6,4 6,0 - - 1,6
11.11.2019 03:00:00 5,9 5,6 - - 2,0
11.11.2019 02:00:00 5,8 5,4 - - 1,0
11.11.2019 01:00:00 5,0 4,5 - - 0,2
11.11.2019 00:00:00 4,8 4,1 - - 1,0
10.11.2019 23:00:00 5,0 4,0 - - 0,2
10.11.2019 22:00:00 5,1 3,7 - - 0,0
10.11.2019 21:00:00 4,9 4,0 - - 0,0
10.11.2019 20:00:00 4,5 3,6 - - 0,0
10.11.2019 19:00:00 4,6 3,6 - - 0,0
10.11.2019 18:00:00 4,5 3,3 - - 0,0
10.11.2019 17:00:00 5,2 3,1 - - 0,0
10.11.2019 16:00:00 6,8 3,3 - - 0,0
10.11.2019 15:00:00 7,7 3,3 - - 0,0
10.11.2019 14:00:00 7,8 3,0 - - 0,0
10.11.2019 13:00:00 7,6 3,0 - - 0,0
10.11.2019 12:00:00 7,3 2,2 - - 0,0
10.11.2019 11:00:00 6,2 1,8 - - 0,0
10.11.2019 10:00:00 5,3 1,8 - - 0,0
10.11.2019 09:00:00 3,9 1,1 8,2 10,9 0,0
10.11.2019 08:00:00 3,7 1,0 - - 0,0
10.11.2019 07:00:00 3,1 0,9 - - 0,0
10.11.2019 06:00:00 3,4 1,0 - - 0,0
10.11.2019 05:00:00 3,6 1,5 - - 0,0
10.11.2019 04:00:00 3,9 2,5 - - 0,0
10.11.2019 03:00:00 3,9 3,2 - - 0,2
10.11.2019 02:00:00 3,9 3,4 - - 0,8
10.11.2019 01:00:00 3,9 3,3 - - 1,0
10.11.2019 00:00:00 3,9 3,5 - - 1,2
09.11.2019 23:00:00 3,3 3,0 - - 1,0
09.11.2019 22:00:00 3,2 2,9 - - 0,8
09.11.2019 21:00:00 3,5 3,2 - - 1,0
09.11.2019 20:00:00 3,8 3,6 - - 0,8
09.11.2019 19:00:00 3,8 3,6 - - 1,0
09.11.2019 18:00:00 3,6 3,4 - - 1,0
09.11.2019 17:00:00 3,6 3,3 - - 1,0
09.11.2019 16:00:00 3,3 3,0 - - 1,8
09.11.2019 15:00:00 3,3 2,9 - - 1,6
09.11.2019 14:00:00 3,5 3,3 - - 1,2
09.11.2019 13:00:00 3,2 3,0 - - 1,2
09.11.2019 12:00:00 3,0 2,8 - - 0,6
09.11.2019 11:00:00 2,7 2,5 - - 0,0
09.11.2019 10:00:00 2,2 2,2 - - 0,0
09.11.2019 09:00:00 0,9 0,9 8,7 11,0 0,0
09.11.2019 08:00:00 -0,7 -0,7 - - 0,0
09.11.2019 07:00:00 -1,2 -1,3 - - 0,0
09.11.2019 06:00:00 -1,1 -1,3 - - 0,0
09.11.2019 05:00:00 -0,6 -0,6 - - 0,0
09.11.2019 04:00:00 -1,4 -1,7 - - 0,0
09.11.2019 03:00:00 -0,6 -0,9 - - 0,0
09.11.2019 02:00:00 0,4 0,1 - - 0,0
09.11.2019 01:00:00 1,3 1,0 - - 0,0
09.11.2019 00:00:00 1,9 1,5 - - 0,0
08.11.2019 23:00:00 2,3 1,7 - - 0,0
08.11.2019 22:00:00 2,9 2,3 - - 0,0
08.11.2019 21:00:00 3,7 2,8 - - 0,0
08.11.2019 20:00:00 4,6 3,4 - - 0,2
08.11.2019 19:00:00 4,6 3,4 - - 0,2
08.11.2019 18:00:00 5,2 3,8 - - 0,4
08.11.2019 17:00:00 5,9 3,0 - - 0,0
08.11.2019 16:00:00 6,6 2,5 - - 0,0
08.11.2019 15:00:00 7,0 2,6 - - 0,0
08.11.2019 14:00:00 7,9 2,7 - - 0,0
08.11.2019 13:00:00 7,4 3,1 - - 0,0
08.11.2019 12:00:00 7,5 3,7 - - 0,0
08.11.2019 11:00:00 6,5 3,5 - - 0,0
08.11.2019 10:00:00 5,9 3,6 - - 0,0
08.11.2019 09:00:00 5,3 3,9 9,7 11,2 0,0
08.11.2019 08:00:00 4,9 3,9 - - 0,0

tt = Temperatura
td = dewpoint
tt -20cm = Temperatura -20cm
tt -100cm = Temperatura -100cm
rr = precipitazioni

Stazioni seguenti

WeatherPro
AMSI
MeteoEarth